Location: Casaluce
(41.0000°N, 14.2000°E)
Time: 23:16:19
(UTC+00:00)

Daily predictions for brighter satellites

Satellite Brightness Start Highest point End
(mag) Time Altitude Azimuth Time Altitude Azimuth Time Altitude Azimuth
COSMOS 2455 3.1 15:55:53 10° S 16:01:41 53° ESE 16:07:32 10° NE
Cosmos 2034 Rocket 4.1 15:55:42 10° S 16:01:51 89° W 16:08:03 10° N
Meteor 1-20 Rocket 4.4 15:57:23 10° N 16:03:12 63° ENE 16:08:59 10° SSE
Cosmos 990 Rocket 4.0 16:01:05 10° NNW 16:06:18 89° ENE 16:11:27 10° SSE
ATLAS CENTAUR R/B 3.6 15:54:19 10° SW 16:06:41 75° NW 16:11:30 10° NE
Lacrosse 5 rocket 3.3 16:05:11 10° N 16:06:43 12° NNE 16:08:17 10° NE
COSMO-SKYMED 1 4.2 16:06:14 10° NE 16:09:00 16° E 16:11:46 10° SE
USA 234 3.6 16:04:15 10° ESE 16:10:27 47° NNE 16:16:38 10° NW
Cosmos 1656 4.4 16:07:14 10° NNW 16:12:42 59° WSW 16:18:13 10° S
NOAA 6 4.1 16:09:42 10° SSE 16:14:44 59° ENE 16:19:47 10° N
Cosmos 1633 Rocket 4.4 16:11:57 10° NNE 16:15:07 19° ENE 16:18:17 10° ESE
SL-24 R/B - RUBIN 2 4.2 16:12:05 10° NNW 16:16:11 33° NE 16:20:06 10° ESE
ISS -2.5 16:14:23 10° NW 16:17:18 26° NNE 16:20:02 11° E
NOSS 3-1 (A) 4.3 16:09:32 10° NW 16:17:18 90° ENE 16:26:15 10° SSE
Cosmos 1634 Rocket 4.1 16:15:26 10° S 16:21:38 62° E 16:27:52 10° NNE
Cosmos 1151 Rocket 3.8 16:18:28 10° SSE 16:22:14 30° E 16:26:03 10° NNE
Cosmos 1666 3.8 16:21:17 10° NNE 16:24:14 22° ENE 16:27:08 10° SE
PSLV R/B 4.1 16:21:25 10° SE 16:24:51 38° ENE 16:28:20 10° N
Meteor 2-14 Rocket 4.5 16:21:28 10° N 16:27:30 60° E 16:33:28 10° SSE
CZ-4B R/B 3.7 16:23:30 10° S 16:27:31 56° W 16:31:20 10° NNW
Cosmos 2026 Rocket 3.9 16:22:33 10° N 16:28:39 67° E 16:34:39 10° SSE
Cosmos 1933 3.6 16:24:51 10° SSW 16:28:53 72° W 16:32:56 10° N
Cosmos 1743 Rocket 4.1 16:26:21 10° NNW 16:30:38 61° W 16:34:53 10° S
Cosmos 2322 Rocket 3.9 16:28:56 10° NNE 16:31:19 13° NE 16:32:02 12° NE
Cosmos 2195 Rocket 4.5 16:26:14 10° N 16:32:27 85° E 16:38:40 10° S
Cosmos 1697 Rocket 2.8 16:27:07 10° NNW 16:32:45 83° WSW 16:38:21 10° SSE
Cosmos 858 Rocket 4.4 16:28:47 10° NNW 16:34:05 77° ENE 16:39:21 10° SSE
Okean O Rocket 2.7 16:30:54 10° ESE 16:34:28 24° ENE 16:38:02 10° NNE
Cosmos 540 Rocket 3.8 16:31:34 10° SSW 16:36:38 67° WNW 16:41:44 10° NNE
Cosmos 1980 Rocket 2.3 16:31:58 10° NNW 16:37:34 56° ENE 16:43:03 10° SE
X-37B 2.8 16:36:42 10° SSE 16:37:51 12° SE 16:38:46 11° ESE
MOS 1-B 4.4 16:34:45 10° SSE 16:40:22 56° ENE 16:46:01 10° N
Cosmos 2369 3.7 16:36:10 10° NNW 16:41:56 77° ENE 16:47:38 10° SSE
Cosmos 1666 Rocket 3.8 16:37:46 10° N 16:42:02 44° ENE 16:46:14 10° SSE
Landsat 5 4.5 16:40:23 17° NE 16:42:18 24° E 16:45:31 10° SSE
Cosmos 1328 Rocket 4.1 16:38:39 10° SSE 16:42:42 36° E 16:46:46 10° NNE
Cosmos 1812 2.7 16:40:25 10° S 16:44:12 59° E 16:48:00 10° NNE
CORIOLIS 4.3 16:42:31 10° S 16:47:54 79° WSW 16:53:22 10° NNW
Meteor 1-5 Rocket 4.5 16:42:09 10° N 16:47:58 51° ENE 16:53:40 10° SSE
Cosmos 1570 Rocket 4.0 16:44:43 10° S 16:49:53 63° ESE 16:55:00 10° NNE
SL-16 R/B 3.3 16:45:54 10° N 16:50:13 21° NE 16:51:23 20° ENE
Meteor 1-14 Rocket 4.3 16:44:28 10° N 16:50:15 60° ENE 16:56:07 10° SSE
Cosmos 2082 Rocket 2.3 16:44:53 10° SSW 16:50:34 81° WNW 16:56:16 10° NNE
Cosmos 1814 Rocket 3.9 16:46:38 10° SSW 16:51:51 76° ESE 16:57:03 10° NNE
Meteor 2-21 Rocket 4.3 16:45:53 10° N 16:51:58 70° E 16:57:59 10° SSE
SKYMED 2 3.6 16:53:05 10° NNE 16:57:21 54° E 17:01:36 10° S
CZ-4B DEB 4.5 16:55:16 10° S 17:00:46 72° WSW 17:06:17 10° NNW
MOS 1-B Rocket 4.1 16:57:07 10° NNE 17:03:10 86° ESE 17:10:09 10° SSW
ARGOS 3.2 16:58:55 10° SSE 17:04:09 53° ENE 17:09:25 10° N
Cosmos 2278 3.6 16:59:54 10° NNW 17:05:36 67° ENE 17:11:15 10° SSE
Sich 1 3.9 17:01:49 10° NNW 17:05:59 50° W 17:10:10 10° S
CZ-2C R/B 3.0 17:02:52 10° SW 17:06:15 23° SSE 17:07:51 18° SE
Cosmos 1818 4.0 17:01:28 10° NNW 17:06:36 39° NE 17:08:58 26° E
deb Chang Zheng 4 3.4 17:11:18 10° SSE 17:15:34 76° ENE 17:19:54 10° N
Meteor 1-27 Rocket 4.2 17:13:45 10° SSE 17:18:43 35° E 17:19:12 35° E
USA 267 4.3 17:16:34 16° NNE 17:21:06 36° NNW 17:26:57 10° W
CZ-4C R/B 4.0 17:22:46 31° SSE 17:22:46 31° SSE 17:24:48 10° S
Cosmos 2208 Rocket 4.1 17:19:49 10° SSW 17:25:12 80° WNW 17:29:27 17° NNE
Cosmos 1515 Rocket 3.5 17:21:40 10° S 17:26:02 58° E 17:26:52 49° NE
SL-08 RB Rocket 3.7 17:22:02 10° SSE 17:26:36 59° ENE 17:31:08 10° N
Cosmos 1867 4.2 17:23:09 10° S 17:27:58 35° ESE 17:27:58 35° ESE
CZ-2C R/B 2.7 17:23:00 10° N 17:28:11 74° WNW 17:33:19 10° SSW
Meteor 2-6 Rocket 4.3 17:24:26 10° SSW 17:30:13 78° W 17:35:52 10° N
H-2A R/B 2.8 17:25:11 10° S 17:30:14 52° W 17:35:11 10° NNW
CZ-4B R/B 3.4 17:26:09 10° S 17:31:34 72° WSW 17:36:55 10° NNW
Cosmos 2150 Rocket 4.0 17:27:34 10° N 17:32:38 52° ENE 17:33:12 49° E
CZ-4C R/B 3.0 17:26:08 10° NW 17:33:39 89° NE 17:42:16 10° SSE
USA 32 3.9 17:34:34 10° S 17:39:41 60° E 17:40:19 55° ENE
Cosmos 921 Rocket 3.2 17:40:19 10° SSW 17:44:28 65° WNW 17:45:22 50° NNW
COSMO-SKYMED 1 3.7 17:41:39 12° N 17:45:22 43° WNW 17:49:27 10° SW
Lacrosse 5 rocket 2.8 17:42:46 10° NW 17:44:49 27° NNW 17:44:49 27° NNW
Cosmos 1125 Rocket 3.4 17:42:37 10° NNW 17:47:31 64° NE 17:47:31 64° NE
Meteor 2-15 Rocket 4.3 17:44:22 10° S 17:50:31 88° W 17:55:52 14° N
USA 234 3.8 17:46:57 10° SSE 17:53:21 56° SW 17:59:47 10° NW
ISS -2.0 17:50:58 10° WNW 17:53:03 32° W 17:53:03 32° W
Cosmos 2360 Rocket 4.0 17:50:41 10° N 17:52:12 17° N 17:52:12 17° N
Cosmos 2266 Rocket 4.0 17:49:42 10° N 17:56:08 84° W 18:02:33 10° S
Cosmos 44 Rocket 3.2 17:51:34 10° NNW 17:56:04 75° NW 17:56:04 75° NW
Meteor 1-11 Rocket 3.6 17:54:16 10° N 17:59:56 90° W 18:05:42 10° S
NOSS 3-3 (A) 4.3 17:54:47 10° S 17:58:50 42° SSE 17:58:50 42° SSE
NOSS 3-3 (C) 4.3 17:54:54 10° S 17:58:54 42° SSE 17:58:54 42° SSE
Okean O Rocket 3.4 18:06:41 10° SSW 18:10:38 32° W 18:14:38 10° NNW
Cosmos 2322 Rocket 3.2 18:10:42 10° NNW 18:13:54 34° N 18:13:54 34° N
SL-16 R/B 3.0 18:29:10 10° NNW 18:33:21 47° WNW 18:33:21 47° WNW
CZ-2C R/B 4.3 18:41:32 10° WSW 18:42:01 13° WSW 18:42:01 13° WSW
